Time,TemperatureF,DewpointF,PressureIn,WindDirection,WindDirectionDegrees,WindSpeedMPH,WindSpeedGustMPH,Humidity,HourlyPrecipIn,Conditions,Clouds,dailyrainin,SoftwareType,DateUTC
2013-07-31 00:04:00,56.3,54.6,30.06,WNW,295,0.0,0.0,94,0.00,FEW,OVC,0.00,WeatherDisplay:10.37,2013-07-31 04:04:00,
2013-07-31 00:09:00,56.1,54.4,30.06,WNW,295,0.0,0.0,94,0.00,FEW,OVC,0.00,WeatherDisplay:10.37,2013-07-31 04:09:00,
2013-07-31 00:14:00,55.9,54.2,30.06,WNW,295,0.0,0.0,94,0.00,SKC,OVC,0.00,WeatherDisplay:10.37,2013-07-31 04:14:00,
2013-07-31 00:19:00,55.9,54.5,30.06,WNW,295,0.0,0.0,95,0.00,SKC,OVC,0.00,WeatherDisplay:10.37,2013-07-31 04:19:00,
2013-07-31 00:24:00,55.7,54.3,30.06,WNW,295,0.0,0.0,95,0.00,SKC,OVC,0.00,WeatherDisplay:10.37,2013-07-31 04:24:00,
2013-07-31 00:29:00,55.5,54.1,30.06,WNW,295,0.0,0.0,95,0.00,SKC,OVC,0.00,WeatherDisplay:10.37,2013-07-31 04:29:00,
2013-07-31 00:34:00,55.4,54.0,30.06,WNW,295,0.0,0.0,95,0.00,SKC,OVC,0.00,WeatherDisplay:10.37,2013-07-31 04:34:00,
2013-07-31 00:39:00,55.2,53.8,30.06,WNW,295,0.0,0.0,95,0.00,SKC,OVC,0.00,WeatherDisplay:10.37,2013-07-31 04:39:00,
2013-07-31 00:44:00,55.1,53.7,30.06,WNW,295,0.0,0.0,95,0.00,SKC,OVC,0.00,WeatherDisplay:10.37,2013-07-31 04:44:00,
2013-07-31 00:49:00,55.1,53.7,30.06,WNW,295,0.0,0.0,95,0.00,SKC,OVC,0.00,WeatherDisplay:10.37,2013-07-31 04:49:00,
2013-07-31 00:54:00,55.3,53.9,30.06,WNW,295,0.0,0.0,95,0.00,SKC,OVC,0.00,WeatherDisplay:10.37,2013-07-31 04:54:00,
2013-07-31 00:59:00,55.4,54.0,30.06,WNW,295,0.0,0.0,95,0.00,SKC,OVC,0.00,WeatherDisplay:10.37,2013-07-31 04:59:00,
2013-07-31 01:04:00,55.4,54.0,30.06,WNW,295,0.0,0.0,95,0.00,SKC,OVC,0.00,WeatherDisplay:10.37,2013-07-31 05:04:00,
2013-07-31 01:09:00,55.4,54.0,30.06,WNW,295,0.0,0.0,95,0.00,SKC,OVC,0.00,WeatherDisplay:10.37,2013-07-31 05:09:00,
2013-07-31 01:14:00,55.4,54.0,30.06,WNW,295,0.0,0.0,95,0.00,SKC,OVC,0.00,WeatherDisplay:10.37,2013-07-31 05:14:00,
2013-07-31 01:19:00,55.4,54.0,30.06,WNW,295,0.0,0.0,95,0.00,SKC,OVC,0.00,WeatherDisplay:10.37,2013-07-31 05:19:00,
2013-07-31 01:24:00,55.4,54.0,30.06,WNW,295,0.0,0.0,95,0.00,SKC,OVC,0.00,WeatherDisplay:10.37,2013-07-31 05:24:00,
2013-07-31 01:29:00,55.4,54.0,30.06,WNW,295,0.0,0.0,95,0.00,SKC,OVC,0.00,WeatherDisplay:10.37,2013-07-31 05:29:00,
2013-07-31 01:34:00,55.4,54.0,30.06,WNW,295,0.0,0.0,95,0.00,SKC,OVC,0.00,WeatherDisplay:10.37,2013-07-31 05:34:00,
2013-07-31 01:40:00,55.6,54.5,30.06,WNW,295,0.0,2.0,96,0.00,SKC,OVC,0.00,WeatherDisplay:10.37,2013-07-31 05:40:00,
2013-07-31 01:49:00,56.7,55.3,30.06,WNW,297,1.0,4.0,95,0.00,SKC,OVC,0.00,WeatherDisplay:10.37,2013-07-31 05:49:00,
2013-07-31 01:54:00,57.4,55.7,30.06,WNW,284,0.0,3.0,94,0.00,SKC,OVC,0.00,WeatherDisplay:10.37,2013-07-31 05:54:00,
2013-07-31 01:59:00,57.8,55.8,30.06,WNW,285,0.0,2.0,93,0.00,SKC,OVC,0.00,WeatherDisplay:10.37,2013-07-31 05:59:00,
2013-07-31 02:04:00,58.5,56.2,30.06,WNW,288,0.0,2.0,92,0.00,SKC,OVC,0.00,WeatherDisplay:10.37,2013-07-31 06:04:00,
2013-07-31 02:09:00,58.9,56.3,30.06,WNW,298,1.0,3.0,91,0.00,SKC,OVC,0.00,WeatherDisplay:10.37,2013-07-31 06:09:00,
2013-07-31 02:14:00,59.2,56.3,30.06,NW,305,0.0,4.0,90,0.00,FEW,OVC,0.00,WeatherDisplay:10.37,2013-07-31 06:14:00,
2013-07-31 02:19:00,59.3,56.1,30.06,NW,309,0.0,3.0,89,0.00,FEW,OVC,0.00,WeatherDisplay:10.37,2013-07-31 06:19:00,
2013-07-31 02:24:00,59.2,56.0,30.06,NW,314,0.0,2.0,89,0.00,FEW,OVC,0.00,WeatherDisplay:10.37,2013-07-31 06:24:00,
2013-07-31 02:29:00,58.7,55.8,30.06,NW,325,0.0,1.0,90,0.00,FEW,OVC,0.00,WeatherDisplay:10.37,2013-07-31 06:29:00,
2013-07-31 02:34:00,58.3,55.7,30.06,NNW,327,0.0,0.0,91,0.00,FEW,OVC,0.00,WeatherDisplay:10.37,2013-07-31 06:34:00,
2013-07-31 02:39:00,57.9,55.3,30.06,NNW,327,0.0,0.0,91,0.00,FEW,OVC,0.00,WeatherDisplay:10.37,2013-07-31 06:39:00,
2013-07-31 02:44:00,57.7,55.4,30.06,NW,326,0.0,1.0,92,0.00,FEW,OVC,0.00,WeatherDisplay:10.37,2013-07-31 06:44:00,
2013-07-31 02:49:00,57.6,55.2,30.06,NW,320,0.0,0.0,92,0.00,FEW,OVC,0.00,WeatherDisplay:10.37,2013-07-31 06:49:00,
2013-07-31 02:54:00,57.3,55.0,30.06,NW,319,0.0,0.0,92,0.00,FEW,OVC,0.00,WeatherDisplay:10.37,2013-07-31 06:54:00,
2013-07-31 02:59:00,56.7,54.7,30.06,NW,319,0.0,0.0,93,0.00,FEW,OVC,0.00,WeatherDisplay:10.37,2013-07-31 06:59:00,
2013-07-31 03:04:00,56.4,54.4,30.06,NW,319,0.0,0.0,93,0.00,FEW,OVC,0.00,WeatherDisplay:10.37,2013-07-31 07:04:00,
2013-07-31 03:09:00,56.2,54.5,30.05,NW,319,0.0,0.0,94,0.00,FEW,OVC,0.00,WeatherDisplay:10.37,2013-07-31 07:09:00,
2013-07-31 03:14:00,55.9,54.2,30.06,NW,319,0.0,0.0,94,0.00,SKC,OVC,0.00,WeatherDisplay:10.37,2013-07-31 07:14:00,
2013-07-31 03:19:00,55.7,54.0,30.05,NW,319,0.0,0.0,94,0.00,SKC,OVC,0.00,WeatherDisplay:10.37,2013-07-31 07:19:00,
2013-07-31 03:24:00,55.6,54.2,30.06,NW,319,0.0,0.0,95,0.00,SKC,OVC,0.00,WeatherDisplay:10.37,2013-07-31 07:24:00,
2013-07-31 03:29:00,55.6,54.2,30.05,NW,319,0.0,0.0,95,0.00,SKC,OVC,0.00,WeatherDisplay:10.37,2013-07-31 07:29:00,
2013-07-31 03:34:00,55.4,53.9,30.05,NW,319,0.0,0.0,95,0.00,SKC,OVC,0.00,WeatherDisplay:10.37,2013-07-31 07:34:00,
2013-07-31 03:39:00,54.9,53.5,30.05,NW,319,0.0,0.0,95,0.00,SKC,OVC,0.00,WeatherDisplay:10.37,2013-07-31 07:39:00,
2013-07-31 03:44:00,54.6,53.2,30.05,NW,319,0.0,0.0,95,0.00,SKC,OVC,0.00,WeatherDisplay:10.37,2013-07-31 07:44:00,
2013-07-31 03:49:00,54.4,53.0,30.05,NW,319,0.0,0.0,95,0.00,SKC,OVC,0.00,WeatherDisplay:10.37,2013-07-31 07:49:00,
2013-07-31 03:54:00,54.3,52.9,30.05,NW,319,0.0,0.0,95,0.00,SKC,OVC,0.00,WeatherDisplay:10.37,2013-07-31 07:54:00,
2013-07-31 03:59:00,54.5,53.4,30.05,NW,319,0.0,0.0,96,0.00,SKC,OVC,0.00,WeatherDisplay:10.37,2013-07-31 07:59:00,
2013-07-31 04:04:00,54.6,53.5,30.05,NW,319,0.0,0.0,96,0.00,SKC,OVC,0.00,WeatherDisplay:10.37,2013-07-31 08:04:00,
2013-07-31 04:09:00,54.7,53.6,30.05,NW,319,0.0,0.0,96,0.00,SKC,OVC,0.00,WeatherDisplay:10.37,2013-07-31 08:09:00,
2013-07-31 04:14:00,54.5,53.4,30.05,NW,319,0.0,0.0,96,0.00,FEW,OVC,0.00,WeatherDisplay:10.37,2013-07-31 08:14:00,
2013-07-31 04:19:00,54.5,53.4,30.05,NW,319,0.0,0.0,96,0.00,FEW,OVC,0.00,WeatherDisplay:10.37,2013-07-31 08:19:00,
2013-07-31 04:24:00,54.7,53.6,30.05,NW,319,0.0,0.0,96,0.00,FEW,OVC,0.00,WeatherDisplay:10.37,2013-07-31 08:24:00,
2013-07-31 04:29:00,54.8,53.7,30.06,NW,319,0.0,0.0,96,0.00,FEW,OVC,0.00,WeatherDisplay:10.37,2013-07-31 08:29:00,
2013-07-31 04:34:00,54.8,53.7,30.06,NW,319,0.0,0.0,96,0.00,FEW,OVC,0.00,WeatherDisplay:10.37,2013-07-31 08:34:00,
2013-07-31 04:39:00,54.8,53.7,30.06,WNW,302,0.0,2.0,96,0.00,FEW,OVC,0.00,WeatherDisplay:10.37,2013-07-31 08:39:00,
2013-07-31 04:44:00,55.0,53.9,30.06,West,274,0.0,1.0,96,0.00,FEW,OVC,0.00,WeatherDisplay:10.37,2013-07-31 08:44:00,
2013-07-31 04:49:00,55.1,54.0,30.06,WNW,288,0.0,0.0,96,0.00,FEW,OVC,0.00,WeatherDisplay:10.37,2013-07-31 08:49:00,
2013-07-31 04:54:00,55.1,54.0,30.06,WNW,288,0.0,0.0,96,0.00,FEW,OVC,0.00,WeatherDisplay:10.37,2013-07-31 08:54:00,
2013-07-31 04:59:00,55.1,54.0,30.06,WNW,288,0.0,0.0,96,0.00,FEW,OVC,0.00,WeatherDisplay:10.37,2013-07-31 08:59:00,
2013-07-31 05:04:00,54.9,53.8,30.06,WNW,288,0.0,0.0,96,0.00,FEW,OVC,0.00,WeatherDisplay:10.37,2013-07-31 09:04:00,
2013-07-31 05:09:00,54.8,53.7,30.06,WNW,288,0.0,0.0,96,0.00,FEW,OVC,0.00,WeatherDisplay:10.37,2013-07-31 09:09:00,
2013-07-31 05:14:00,54.8,53.7,30.06,WNW,288,0.0,0.0,96,0.00,SCT,OVC,0.00,WeatherDisplay:10.37,2013-07-31 09:14:00,
2013-07-31 05:19:00,54.7,53.6,30.06,WNW,288,0.0,0.0,96,0.00,SCT,OVC,0.00,WeatherDisplay:10.37,2013-07-31 09:19:00,
2013-07-31 05:39:00,54.6,53.5,30.06,WNW,288,0.0,0.0,96,0.00,SCT,OVC,0.00,WeatherDisplay:10.37,2013-07-31 09:39:00,
2013-07-31 05:49:00,54.6,53.5,30.06,WNW,288,0.0,0.0,96,0.00,SCT,OVC,0.00,WeatherDisplay:10.37,2013-07-31 09:49:00,
2013-07-31 05:54:00,54.6,53.5,30.06,WNW,288,0.0,0.0,96,0.00,SCT,OVC,0.00,WeatherDisplay:10.37,2013-07-31 09:54:00,
2013-07-31 05:59:00,54.4,53.3,30.06,WNW,288,0.0,0.0,96,0.00,SCT,OVC,0.00,WeatherDisplay:10.37,2013-07-31 09:59:00,
2013-07-31 06:04:00,54.3,53.2,30.06,WNW,288,0.0,0.0,96,0.00,SCT,OVC,0.00,WeatherDisplay:10.37,2013-07-31 10:04:00,
2013-07-31 06:09:00,54.4,53.3,30.06,WNW,288,0.0,0.0,96,0.00,SCT,OVC,0.00,WeatherDisplay:10.37,2013-07-31 10:09:00,
2013-07-31 06:14:00,54.3,53.2,30.06,WNW,288,0.0,0.0,96,0.00,SCT,OVC,0.00,WeatherDisplay:10.37,2013-07-31 10:14:00,
2013-07-31 06:19:00,54.2,53.1,30.06,WNW,288,0.0,0.0,96,0.00,SCT,OVC,0.00,WeatherDisplay:10.37,2013-07-31 10:19:00,
2013-07-31 06:24:00,54.2,53.1,30.06,WNW,288,0.0,0.0,96,0.00,SCT,OVC,0.00,WeatherDisplay:10.37,2013-07-31 10:24:00,
2013-07-31 06:29:00,54.4,53.2,30.06,WNW,288,0.0,0.0,96,0.00,SCT,OVC,0.00,WeatherDisplay:10.37,2013-07-31 10:29:00,
2013-07-31 06:34:00,54.6,53.4,30.06,WNW,288,0.0,0.0,96,0.00,SCT,OVC,0.00,WeatherDisplay:10.37,2013-07-31 10:34:00,
2013-07-31 06:39:00,54.7,53.6,30.06,WNW,288,0.0,0.0,96,0.00,SCT,OVC,0.00,WeatherDisplay:10.37,2013-07-31 10:39:00,
2013-07-31 06:44:00,54.9,54.9,30.06,WNW,288,0.0,0.0,100,0.00,SCT,OVC,0.00,WeatherDisplay:10.37,2013-07-31 10:44:00,
2013-07-31 06:49:00,55.1,54.6,30.07,WNW,288,0.0,0.0,98,0.00,SCT,OVC,0.00,WeatherDisplay:10.37,2013-07-31 10:49:00,
2013-07-31 06:54:00,55.4,54.9,30.07,WNW,288,0.0,0.0,98,0.00,SCT,OVC,0.00,WeatherDisplay:10.37,2013-07-31 10:54:00,
2013-07-31 06:59:00,55.8,54.7,30.07,WNW,288,0.0,0.0,96,0.00,SCT,OVC,0.00,WeatherDisplay:10.37,2013-07-31 10:59:00,
2013-07-31 07:04:00,56.4,55.3,30.07,WNW,288,0.0,0.0,96,0.00,SCT,OVC,0.00,WeatherDisplay:10.37,2013-07-31 11:04:00,
2013-07-31 07:09:00,57.0,55.5,30.07,WNW,288,0.0,0.0,95,0.00,SCT,OVC,0.00,WeatherDisplay:10.37,2013-07-31 11:09:00,
2013-07-31 07:14:00,57.4,55.7,30.07,WNW,288,0.0,0.0,94,0.00,SCT,OVC,0.00,WeatherDisplay:10.37,2013-07-31 11:14:00,
2013-07-31 07:19:00,58.0,56.3,30.07,WNW,282,0.0,2.0,94,0.00,SCT,OVC,0.00,WeatherDisplay:10.37,2013-07-31 11:19:00,
2013-07-31 07:24:00,58.8,56.8,30.07,WSW,254,0.0,0.0,93,0.00,BKN,OVC,0.00,WeatherDisplay:10.37,2013-07-31 11:24:00,
2013-07-31 07:29:00,59.9,57.3,30.07,WSW,251,0.0,1.0,91,0.00,BKN,OVC,0.00,WeatherDisplay:10.37,2013-07-31 11:29:00,
2013-07-31 07:34:00,61.0,58.1,30.06,West,276,0.0,2.0,90,0.00,BKN,OVC,0.00,WeatherDisplay:10.37,2013-07-31 11:34:00,
2013-07-31 07:39:00,61.9,58.3,30.07,West,269,0.0,2.0,88,0.00,BKN,OVC,0.00,WeatherDisplay:10.37,2013-07-31 11:39:00,
2013-07-31 07:44:00,62.5,58.2,30.07,West,263,0.0,2.0,86,0.00,BKN,OVC,0.00,WeatherDisplay:10.37,2013-07-31 11:44:00,
2013-07-31 07:49:00,62.9,58.0,30.07,West,265,0.0,3.0,84,0.00,BKN,OVC,0.00,WeatherDisplay:10.37,2013-07-31 11:49:00,
2013-07-31 07:54:00,63.7,58.4,30.06,West,266,0.0,1.0,83,0.00,BKN,OVC,0.00,WeatherDisplay:10.37,2013-07-31 11:54:00,
2013-07-31 07:59:00,64.2,59.2,30.06,WNW,298,0.0,0.0,84,0.00,BKN,OVC,0.00,WeatherDisplay:10.37,2013-07-31 11:59:00,
2013-07-31 08:04:00,64.5,58.9,30.06,NW,312,0.0,4.0,82,0.00,BKN,OVC,0.00,WeatherDisplay:10.37,2013-07-31 12:04:00,
2013-07-31 08:09:00,65.3,59.3,30.06,NW,311,0.0,3.0,81,0.00,BKN,OVC,0.00,WeatherDisplay:10.37,2013-07-31 12:09:00,
2013-07-31 08:14:00,65.8,58.4,30.06,West,272,1.0,5.0,77,0.00,BKN,OVC,0.00,WeatherDisplay:10.37,2013-07-31 12:14:00,
2013-07-31 08:19:00,66.2,58.7,30.06,West,270,0.0,3.0,77,0.00,BKN,OVC,0.00,WeatherDisplay:10.37,2013-07-31 12:19:00,
2013-07-31 08:24:00,66.4,59.7,30.06,West,261,1.0,4.0,79,0.00,BKN,OVC,0.00,WeatherDisplay:10.37,2013-07-31 12:24:00,
2013-07-31 08:29:00,66.8,59.7,30.06,WSW,242,0.0,5.0,78,0.00,BKN,OVC,0.00,WeatherDisplay:10.37,2013-07-31 12:29:00,
2013-07-31 08:34:00,67.3,59.8,30.06,WSW,254,0.0,4.0,77,0.00,BKN,OVC,0.00,WeatherDisplay:10.37,2013-07-31 12:34:00,
2013-07-31 08:39:00,67.8,60.3,30.06,West,269,0.0,2.0,77,0.00,BKN,OVC,0.00,WeatherDisplay:10.37,2013-07-31 12:39:00,
2013-07-31 08:44:00,68.5,59.9,30.06,West,267,0.0,3.0,74,0.00,BKN,OVC,0.00,WeatherDisplay:10.37,2013-07-31 12:44:00,
2013-07-31 08:49:00,68.9,59.9,30.06,WSW,247,2.0,4.0,73,0.00,BKN,OVC,0.00,WeatherDisplay:10.37,2013-07-31 12:49:00,
2013-07-31 08:54:00,69.3,60.3,30.06,West,264,0.0,4.0,73,0.00,BKN,OVC,0.00,WeatherDisplay:10.37,2013-07-31 12:54:00,
2013-07-31 08:59:00,69.8,59.9,30.06,WNW,292,1.0,6.0,71,0.00,BKN,OVC,0.00,WeatherDisplay:10.37,2013-07-31 12:59:00,
2013-07-31 09:04:00,70.1,60.2,30.05,WNW,299,1.0,4.0,71,0.00,BKN,OVC,0.00,WeatherDisplay:10.37,2013-07-31 13:04:00,
2013-07-31 09:09:00,70.4,58.9,30.05,WNW,291,2.0,6.0,67,0.00,BKN,OVC,0.00,WeatherDisplay:10.37,2013-07-31 13:09:00,
2013-07-31 09:14:00,70.8,59.3,30.05,WNW,289,2.0,4.0,67,0.00,SCT,OVC,0.00,WeatherDisplay:10.37,2013-07-31 13:14:00,
2013-07-31 09:19:00,70.9,59.8,30.05,WNW,282,0.0,4.0,68,0.00,SCT,OVC,0.00,WeatherDisplay:10.37,2013-07-31 13:19:00,
2013-07-31 09:24:00,71.4,60.2,30.05,WNW,295,2.0,5.0,68,0.00,SCT,OVC,0.00,WeatherDisplay:10.37,2013-07-31 13:24:00,
2013-07-31 09:29:00,71.2,60.1,30.05,NW,313,0.0,7.0,68,0.00,SCT,OVC,0.00,WeatherDisplay:10.37,2013-07-31 13:29:00,
2013-07-31 09:34:00,71.8,61.9,30.05,NW,305,0.0,3.0,71,0.00,SCT,OVC,0.00,WeatherDisplay:10.37,2013-07-31 13:34:00,
2013-07-31 09:39:00,72.2,61.0,30.05,SW,228,1.0,3.0,68,0.00,SCT,OVC,0.00,WeatherDisplay:10.37,2013-07-31 13:39:00,
2013-07-31 09:44:00,72.6,62.3,30.05,WSW,240,0.0,1.0,70,0.00,SCT,OVC,0.00,WeatherDisplay:10.37,2013-07-31 13:44:00,
2013-07-31 09:49:00,72.4,61.2,30.05,West,263,2.0,5.0,68,0.00,SCT,OVC,0.00,WeatherDisplay:10.37,2013-07-31 13:49:00,
2013-07-31 09:54:00,72.1,61.4,30.05,WSW,256,1.0,3.0,69,0.00,SCT,OVC,0.00,WeatherDisplay:10.37,2013-07-31 13:54:00,
2013-07-31 09:59:00,72.2,62.3,30.05,WSW,250,0.0,3.0,71,0.00,SCT,OVC,0.00,WeatherDisplay:10.37,2013-07-31 13:59:00,
2013-07-31 10:04:00,72.2,62.6,30.05,SW,227,0.0,2.0,72,0.00,SCT,OVC,0.00,WeatherDisplay:10.37,2013-07-31 14:04:00,
2013-07-31 10:09:00,72.5,63.4,30.05,SW,229,0.0,3.0,73,0.00,SCT,OVC,0.00,WeatherDisplay:10.37,2013-07-31 14:09:00,
2013-07-31 10:14:00,72.6,64.2,30.05,SW,227,0.0,3.0,75,0.00,BKN,OVC,0.00,WeatherDisplay:10.37,2013-07-31 14:14:00,
2013-07-31 10:19:00,73.2,64.0,30.05,SW,234,0.0,2.0,73,0.00,BKN,OVC,0.00,WeatherDisplay:10.37,2013-07-31 14:19:00,
2013-07-31 10:24:00,73.1,63.9,30.05,SSW,209,0.0,2.0,73,0.00,BKN,OVC,0.00,WeatherDisplay:10.37,2013-07-31 14:24:00,
2013-07-31 10:29:00,73.1,63.6,30.05,South,186,1.0,5.0,72,0.00,BKN,OVC,0.00,WeatherDisplay:10.37,2013-07-31 14:29:00,
2013-07-31 10:34:00,73.4,64.6,30.05,South,178,0.0,4.0,74,0.00,BKN,OVC,0.00,WeatherDisplay:10.37,2013-07-31 14:34:00,
2013-07-31 10:39:00,73.5,64.3,30.05,SSE,166,0.0,3.0,73,0.00,BKN,OVC,0.00,WeatherDisplay:10.37,2013-07-31 14:39:00,
2013-07-31 10:49:00,74.3,63.9,30.05,WSW,246,2.0,5.0,70,0.00,BKN,OVC,0.00,WeatherDisplay:10.37,2013-07-31 14:49:00,
2013-07-31 10:54:00,74.0,63.2,30.05,WNW,288,2.0,8.0,69,0.00,BKN,OVC,0.00,WeatherDisplay:10.37,2013-07-31 14:54:00,
2013-07-31 10:59:00,74.5,64.1,30.05,North,8,1.0,5.0,70,0.00,BKN,OVC,0.00,WeatherDisplay:10.37,2013-07-31 14:59:00,
2013-07-31 11:04:00,74.3,63.9,30.05,WSW,248,1.0,4.0,70,0.00,BKN,OVC,0.00,WeatherDisplay:10.37,2013-07-31 15:04:00,
2013-07-31 11:09:00,74.6,64.6,30.05,NW,310,1.0,5.0,71,0.00,BKN,OVC,0.00,WeatherDisplay:10.37,2013-07-31 15:09:00,
2013-07-31 11:14:00,74.7,64.3,30.05,NW,313,2.0,5.0,70,0.00,BKN,OVC,0.00,WeatherDisplay:10.37,2013-07-31 15:14:00,
2013-07-31 11:19:00,74.9,64.0,30.05,SW,233,1.0,5.0,69,0.00,BKN,OVC,0.00,WeatherDisplay:10.37,2013-07-31 15:19:00,
2013-07-31 11:29:00,75.2,63.9,30.04,WNW,302,1.0,5.0,68,0.00,BKN,OVC,0.00,WeatherDisplay:10.37,2013-07-31 15:29:00,
2013-07-31 11:34:00,75.6,64.3,30.05,NW,308,0.0,2.0,68,0.00,BKN,OVC,0.00,WeatherDisplay:10.37,2013-07-31 15:34:00,
2013-07-31 11:39:00,75.5,63.8,30.04,WSW,241,1.0,6.0,67,0.00,BKN,OVC,0.00,WeatherDisplay:10.37,2013-07-31 15:39:00,
2013-07-31 11:44:00,75.3,62.7,30.04,WSW,252,2.0,6.0,65,0.00,BKN,OVC,0.00,WeatherDisplay:10.37,2013-07-31 15:44:00,
2013-07-31 11:49:00,75.2,61.3,30.04,WSW,246,5.0,12.0,62,0.00,BKN,OVC,0.00,WeatherDisplay:10.37,2013-07-31 15:49:00,
2013-07-31 11:54:00,75.3,61.4,30.04,West,271,3.0,10.0,62,0.00,BKN,OVC,0.00,WeatherDisplay:10.37,2013-07-31 15:54:00,
2013-07-31 11:59:00,75.7,63.6,30.04,WSW,237,2.0,6.0,66,0.00,BKN,OVC,0.00,WeatherDisplay:10.37,2013-07-31 15:59:00,
2013-07-31 12:04:00,76.0,63.4,30.04,South,180,2.0,12.0,65,0.00,BKN,OVC,0.00,WeatherDisplay:10.37,2013-07-31 16:04:00,
2013-07-31 12:09:00,76.0,62.1,30.05,West,272,3.0,8.0,62,0.00,BKN,OVC,0.00,WeatherDisplay:10.37,2013-07-31 16:09:00,
2013-07-31 12:14:00,75.9,62.8,30.04,West,265,1.0,8.0,64,0.00,BKN,OVC,0.00,WeatherDisplay:10.37,2013-07-31 16:14:00,
2013-07-31 12:19:00,75.4,63.7,30.04,West,266,0.0,7.0,67,0.00,BKN,OVC,0.00,WeatherDisplay:10.37,2013-07-31 16:19:00,
2013-07-31 12:24:00,75.7,64.0,30.04,SW,230,1.0,8.0,67,0.00,BKN,OVC,0.00,WeatherDisplay:10.37,2013-07-31 16:24:00,
2013-07-31 12:29:00,76.0,63.8,30.04,SSW,201,1.0,7.0,66,0.00,BKN,OVC,0.00,WeatherDisplay:10.37,2013-07-31 16:29:00,
2013-07-31 12:34:00,75.7,63.6,30.04,WSW,250,2.0,12.0,66,0.00,BKN,OVC,0.00,WeatherDisplay:10.37,2013-07-31 16:34:00,
2013-07-31 12:44:00,76.1,63.0,30.03,WSW,247,1.0,6.0,64,0.00,BKN,OVC,0.00,WeatherDisplay:10.37,2013-07-31 16:44:00,
2013-07-31 12:49:00,77.3,64.6,30.03,West,277,1.0,4.0,65,0.00,BKN,OVC,0.00,WeatherDisplay:10.37,2013-07-31 16:49:00,
2013-07-31 12:54:00,77.2,63.2,30.03,WSW,245,2.0,8.0,62,0.00,BKN,OVC,0.00,WeatherDisplay:10.37,2013-07-31 16:54:00,
2013-07-31 12:59:00,77.2,62.7,30.03,WSW,240,1.0,10.0,61,0.00,BKN,OVC,0.00,WeatherDisplay:10.37,2013-07-31 16:59:00,
2013-07-31 13:09:00,77.8,63.7,30.02,SW,227,2.0,7.0,62,0.00,BKN,OVC,0.00,WeatherDisplay:10.37,2013-07-31 17:09:00,
2013-07-31 13:19:00,78.6,62.6,30.02,WNW,290,3.0,8.0,58,0.00,BKN,OVC,0.00,WeatherDisplay:10.37,2013-07-31 17:19:00,
2013-07-31 13:24:00,78.4,63.8,30.02,WSW,256,1.0,9.0,61,0.00,BKN,OVC,0.00,WeatherDisplay:10.37,2013-07-31 17:24:00,
2013-07-31 13:34:00,78.2,61.7,30.02,WSW,252,3.0,10.0,57,0.00,BKN,OVC,0.00,WeatherDisplay:10.37,2013-07-31 17:34:00,
2013-07-31 13:39:00,78.3,61.8,30.02,SW,231,2.0,10.0,57,0.00,BKN,OVC,0.00,WeatherDisplay:10.37,2013-07-31 17:39:00,
2013-07-31 13:44:00,78.8,62.8,30.01,SW,220,1.0,6.0,58,0.00,BKN,OVC,0.00,WeatherDisplay:10.37,2013-07-31 17:44:00,
2013-07-31 13:49:00,79.6,64.0,30.01,SW,226,1.0,5.0,59,0.00,BKN,OVC,0.00,WeatherDisplay:10.37,2013-07-31 17:49:00,
2013-07-31 14:14:00,79.1,62.1,30.01,West,260,3.0,10.0,56,0.00,BKN,OVC,0.00,WeatherDisplay:10.37,2013-07-31 18:14:00,
2013-07-31 14:19:00,79.2,62.6,30.01,SW,215,5.0,10.0,57,0.00,BKN,OVC,0.00,WeatherDisplay:10.37,2013-07-31 18:19:00,
2013-07-31 14:24:00,79.0,60.9,30.00,West,272,3.0,10.0,54,0.00,BKN,OVC,0.00,WeatherDisplay:10.37,2013-07-31 18:24:00,
2013-07-31 14:29:00,79.1,62.6,30.00,WNW,285,1.0,9.0,57,0.00,BKN,OVC,0.00,WeatherDisplay:10.37,2013-07-31 18:29:00,
2013-07-31 15:24:00,79.7,61.6,30.00,West,268,2.0,9.0,54,0.00,BKN,OVC,0.00,WeatherDisplay:10.37,2013-07-31 19:24:00,
2013-07-31 15:29:00,79.7,61.0,30.00,SE,141,1.0,8.0,53,0.00,BKN,OVC,0.00,WeatherDisplay:10.37,2013-07-31 19:29:00,
2013-07-31 15:34:00,79.4,61.8,30.00,SSE,147,0.0,8.0,55,0.00,BKN,OVC,0.00,WeatherDisplay:10.37,2013-07-31 19:34:00,
2013-07-31 15:39:00,79.4,61.3,30.00,SW,236,1.0,8.0,54,0.00,BKN,OVC,0.00,WeatherDisplay:10.37,2013-07-31 19:39:00,
2013-07-31 15:44:00,78.7,60.1,30.00,WSW,251,5.0,10.0,53,0.00,BKN,OVC,0.00,WeatherDisplay:10.37,2013-07-31 19:44:00,
2013-07-31 15:49:00,78.2,60.2,30.00,WSW,243,1.0,7.0,54,0.00,BKN,OVC,0.00,WeatherDisplay:10.37,2013-07-31 19:49:00,
2013-07-31 15:54:00,78.1,59.6,29.99,WSW,253,2.0,9.0,53,0.00,BKN,OVC,0.00,WeatherDisplay:10.37,2013-07-31 19:54:00,
2013-07-31 15:59:00,77.3,60.4,29.99,West,262,1.0,9.0,56,0.00,BKN,OVC,0.00,WeatherDisplay:10.37,2013-07-31 19:59:00,
2013-07-31 16:04:00,77.0,60.6,29.99,West,269,2.0,6.0,57,0.00,BKN,OVC,0.00,WeatherDisplay:10.37,2013-07-31 20:04:00,
2013-07-31 16:09:00,77.0,60.6,29.99,West,263,1.0,7.0,57,0.00,BKN,OVC,0.00,WeatherDisplay:10.37,2013-07-31 20:09:00,
2013-07-31 16:14:00,77.0,61.1,29.99,WNW,289,2.0,5.0,58,0.00,BKN,OVC,0.00,WeatherDisplay:10.37,2013-07-31 20:14:00,
2013-07-31 16:19:00,76.8,61.9,29.99,West,276,1.0,6.0,60,0.00,BKN,OVC,0.00,WeatherDisplay:10.37,2013-07-31 20:19:00,
2013-07-31 16:24:00,76.4,62.0,29.99,West,269,1.0,8.0,61,0.00,BKN,OVC,0.00,WeatherDisplay:10.37,2013-07-31 20:24:00,
2013-07-31 16:29:00,76.0,60.7,29.99,West,266,2.0,6.0,59,0.00,BKN,OVC,0.00,WeatherDisplay:10.37,2013-07-31 20:29:00,
2013-07-31 16:34:00,75.7,61.8,29.98,West,281,0.0,5.0,62,0.00,BKN,OVC,0.00,WeatherDisplay:10.37,2013-07-31 20:34:00,
2013-07-31 16:39:00,75.5,61.1,29.98,West,259,0.0,5.0,61,0.00,BKN,OVC,0.00,WeatherDisplay:10.37,2013-07-31 20:39:00,
2013-07-31 16:44:00,75.3,62.3,29.98,SW,226,1.0,2.0,64,0.00,BKN,OVC,0.00,WeatherDisplay:10.37,2013-07-31 20:44:00,
2013-07-31 16:49:00,75.2,61.7,29.99,WSW,254,0.0,4.0,63,0.00,BKN,OVC,0.00,WeatherDisplay:10.37,2013-07-31 20:49:00,
2013-07-31 16:54:00,74.9,62.3,29.99,WSW,250,0.0,4.0,65,0.00,BKN,OVC,0.00,WeatherDisplay:10.37,2013-07-31 20:54:00,
2013-07-31 16:59:00,74.7,61.3,29.99,West,260,0.0,3.0,63,0.00,BKN,OVC,0.00,WeatherDisplay:10.37,2013-07-31 20:59:00,
2013-07-31 17:04:00,74.7,62.6,29.99,WSW,258,0.0,2.0,66,0.00,BKN,OVC,0.00,WeatherDisplay:10.37,2013-07-31 21:04:00,
2013-07-31 17:09:00,74.7,62.6,29.99,WSW,252,0.0,3.0,66,0.00,BKN,OVC,0.00,WeatherDisplay:10.37,2013-07-31 21:09:00,
2013-07-31 17:14:00,75.1,62.1,29.98,WSW,248,1.0,6.0,64,0.00,BKN,OVC,0.00,WeatherDisplay:10.37,2013-07-31 21:14:00,
2013-07-31 17:19:00,75.6,62.6,29.99,West,270,2.0,6.0,64,0.00,BKN,OVC,0.00,WeatherDisplay:10.37,2013-07-31 21:19:00,
2013-07-31 17:24:00,76.4,62.8,29.98,WSW,251,0.0,6.0,63,0.00,BKN,OVC,0.00,WeatherDisplay:10.37,2013-07-31 21:24:00,
2013-07-31 17:29:00,76.8,62.3,29.98,SSW,211,2.0,9.0,61,0.00,BKN,OVC,0.00,WeatherDisplay:10.37,2013-07-31 21:29:00,
2013-07-31 17:34:00,77.0,62.5,29.98,SW,215,3.0,8.0,61,0.00,BKN,OVC,0.00,WeatherDisplay:10.37,2013-07-31 21:34:00,
2013-07-31 17:39:00,77.1,63.0,29.98,WSW,239,0.0,10.0,62,0.00,BKN,OVC,0.00,WeatherDisplay:10.37,2013-07-31 21:39:00,
2013-07-31 17:44:00,76.7,61.3,29.98,West,265,1.0,7.0,59,0.00,BKN,OVC,0.00,WeatherDisplay:10.37,2013-07-31 21:44:00,
2013-07-31 17:49:00,76.5,62.1,29.98,WNW,294,1.0,6.0,61,0.00,BKN,OVC,0.00,WeatherDisplay:10.37,2013-07-31 21:49:00,
2013-07-31 17:55:00,76.8,61.8,29.97,West,260,3.0,9.0,60,0.00,BKN,OVC,0.00,WeatherDisplay:10.37,2013-07-31 21:55:00,
2013-07-31 18:04:00,76.3,62.3,29.98,WSW,241,1.0,7.0,62,0.00,BKN,OVC,0.00,WeatherDisplay:10.37,2013-07-31 22:04:00,
2013-07-31 18:09:00,76.4,62.0,29.98,SW,232,0.0,6.0,61,0.00,BKN,OVC,0.00,WeatherDisplay:10.37,2013-07-31 22:09:00,
2013-07-31 18:14:00,76.3,61.4,29.97,WSW,239,1.0,6.0,60,0.00,BKN,OVC,0.00,WeatherDisplay:10.37,2013-07-31 22:14:00,
2013-07-31 18:19:00,76.3,60.9,29.97,WSW,241,2.0,7.0,59,0.00,BKN,OVC,0.00,WeatherDisplay:10.37,2013-07-31 22:19:00,
2013-07-31 18:24:00,75.9,61.0,29.97,SW,228,1.0,5.0,60,0.00,BKN,OVC,0.00,WeatherDisplay:10.37,2013-07-31 22:24:00,
2013-07-31 18:29:00,75.6,61.2,29.97,WSW,246,0.0,5.0,61,0.00,BKN,OVC,0.00,WeatherDisplay:10.37,2013-07-31 22:29:00,
2013-07-31 18:34:00,75.4,60.1,29.97,West,260,2.0,6.0,59,0.00,BKN,OVC,0.00,WeatherDisplay:10.37,2013-07-31 22:34:00,
2013-07-31 18:44:00,75.0,60.2,29.97,West,262,0.0,7.0,60,0.00,BKN,OVC,0.00,WeatherDisplay:10.37,2013-07-31 22:44:00,
2013-07-31 18:49:00,74.4,60.1,29.97,SW,235,1.0,5.0,61,0.00,BKN,OVC,0.00,WeatherDisplay:10.37,2013-07-31 22:49:00,
2013-07-31 18:54:00,73.6,60.3,29.97,West,265,0.0,4.0,63,0.00,BKN,OVC,0.00,WeatherDisplay:10.37,2013-07-31 22:54:00,
2013-07-31 18:59:00,73.4,60.1,29.97,West,273,0.0,0.0,63,0.00,BKN,OVC,0.00,WeatherDisplay:10.37,2013-07-31 22:59:00,
2013-07-31 19:04:00,74.0,60.6,29.97,West,276,0.0,0.0,63,0.00,BKN,OVC,0.00,WeatherDisplay:10.37,2013-07-31 23:04:00,
2013-07-31 19:09:00,74.4,61.0,29.97,West,274,0.0,2.0,63,0.00,BKN,OVC,0.00,WeatherDisplay:10.37,2013-07-31 23:09:00,
2013-07-31 19:14:00,74.5,61.5,29.97,WSW,255,0.0,2.0,64,0.00,BKN,OVC,0.00,WeatherDisplay:10.37,2013-07-31 23:14:00,
2013-07-31 19:19:00,74.3,61.3,29.96,WSW,250,0.0,2.0,64,0.00,BKN,OVC,0.00,WeatherDisplay:10.37,2013-07-31 23:19:00,
2013-07-31 19:24:00,74.1,62.0,29.96,WSW,240,0.0,0.0,66,0.00,BKN,OVC,0.00,WeatherDisplay:10.37,2013-07-31 23:24:00,
2013-07-31 19:29:00,73.4,62.2,29.96,WSW,238,0.0,0.0,68,0.00,BKN,OVC,0.00,WeatherDisplay:10.37,2013-07-31 23:29:00,
2013-07-31 19:34:00,72.8,62.1,29.96,WSW,238,0.0,0.0,69,0.00,BKN,OVC,0.00,WeatherDisplay:10.37,2013-07-31 23:34:00,
2013-07-31 19:39:00,72.0,62.5,29.96,WSW,238,0.0,0.0,72,0.00,BKN,OVC,0.00,WeatherDisplay:10.37,2013-07-31 23:39:00,
2013-07-31 19:44:00,71.1,62.4,29.96,WSW,238,0.0,0.0,74,0.00,BKN,OVC,0.00,WeatherDisplay:10.37,2013-07-31 23:44:00,
2013-07-31 19:49:00,70.3,62.4,29.96,WSW,238,0.0,0.0,76,0.00,BKN,OVC,0.00,WeatherDisplay:10.37,2013-07-31 23:49:00,
2013-07-31 19:54:00,69.6,62.1,29.96,WSW,238,0.0,0.0,77,0.00,BKN,OVC,0.00,WeatherDisplay:10.37,2013-07-31 23:54:00,
2013-07-31 19:59:00,69.1,62.0,29.96,WSW,238,0.0,0.0,78,0.00,BKN,OVC,0.00,WeatherDisplay:10.37,2013-07-31 23:59:00,
2013-07-31 20:04:00,68.7,62.3,29.96,WSW,238,0.0,0.0,80,0.00,BKN,OVC,0.00,WeatherDisplay:10.37,2013-08-01 00:04:00,
2013-07-31 20:09:00,68.3,62.3,29.96,WSW,238,0.0,0.0,81,0.00,BKN,OVC,0.00,WeatherDisplay:10.37,2013-08-01 00:09:00,
2013-07-31 20:14:00,67.8,62.1,29.96,WSW,238,0.0,0.0,82,0.00,BKN,OVC,0.00,WeatherDisplay:10.37,2013-08-01 00:14:00,
2013-07-31 20:19:00,67.2,61.9,29.96,WSW,238,0.0,0.0,83,0.00,BKN,OVC,0.00,WeatherDisplay:10.37,2013-08-01 00:19:00,
2013-07-31 20:24:00,66.7,61.7,29.96,WSW,238,0.0,0.0,84,0.00,BKN,OVC,0.00,WeatherDisplay:10.37,2013-08-01 00:24:00,
2013-07-31 20:29:00,66.2,61.6,29.96,WSW,238,0.0,0.0,85,0.00,BKN,OVC,0.00,WeatherDisplay:10.37,2013-08-01 00:29:00,
2013-07-31 20:34:00,65.7,61.1,29.96,WSW,238,0.0,0.0,85,0.00,BKN,OVC,0.00,WeatherDisplay:10.37,2013-08-01 00:34:00,
2013-07-31 20:44:00,64.8,60.9,29.97,WSW,238,0.0,0.0,87,0.00,BKN,OVC,0.00,WeatherDisplay:10.37,2013-08-01 00:44:00,
2013-07-31 20:49:00,64.4,60.4,29.97,WSW,238,0.0,0.0,87,0.00,BKN,OVC,0.00,WeatherDisplay:10.37,2013-08-01 00:49:00,
2013-07-31 20:54:00,64.2,60.5,29.97,WSW,238,0.0,0.0,88,0.00,BKN,OVC,0.00,WeatherDisplay:10.37,2013-08-01 00:54:00,
2013-07-31 20:59:00,63.9,60.6,29.97,WSW,238,0.0,0.0,89,0.00,BKN,OVC,0.00,WeatherDisplay:10.37,2013-08-01 00:59:00,
2013-07-31 21:04:00,63.6,60.6,29.97,WSW,238,0.0,0.0,90,0.00,BKN,OVC,0.00,WeatherDisplay:10.37,2013-08-01 01:04:00,
2013-07-31 21:09:00,63.4,60.4,29.97,WSW,238,0.0,0.0,90,0.00,BKN,OVC,0.00,WeatherDisplay:10.37,2013-08-01 01:09:00,
2013-07-31 21:14:00,63.2,60.5,29.97,WSW,238,0.0,0.0,91,0.00,SCT,OVC,0.00,WeatherDisplay:10.37,2013-08-01 01:14:00,
2013-07-31 21:19:00,63.2,60.5,29.97,WSW,238,0.0,0.0,91,0.00,SCT,OVC,0.00,WeatherDisplay:10.37,2013-08-01 01:19:00,
2013-07-31 21:29:00,62.9,60.2,29.97,WSW,238,0.0,0.0,91,0.00,SCT,OVC,0.00,WeatherDisplay:10.37,2013-08-01 01:29:00,
2013-07-31 21:34:00,62.7,60.0,29.97,WSW,238,0.0,0.0,91,0.00,SCT,OVC,0.00,WeatherDisplay:10.37,2013-08-01 01:34:00,
2013-07-31 21:39:00,62.5,60.1,29.98,WSW,238,0.0,0.0,92,0.00,SCT,OVC,0.00,WeatherDisplay:10.37,2013-08-01 01:39:00,
2013-07-31 21:44:00,62.4,60.0,29.98,WSW,247,0.0,0.0,92,0.00,SCT,OVC,0.00,WeatherDisplay:10.37,2013-08-01 01:44:00,
2013-07-31 21:49:00,62.3,59.9,29.98,West,272,0.0,1.0,92,0.00,SCT,OVC,0.00,WeatherDisplay:10.37,2013-08-01 01:49:00,
2013-07-31 21:54:00,62.1,59.7,29.98,NW,317,0.0,0.0,92,0.00,SCT,OVC,0.00,WeatherDisplay:10.37,2013-08-01 01:54:00,
2013-07-31 21:59:00,62.0,59.6,29.98,NNW,330,0.0,0.0,92,0.00,SCT,OVC,0.00,WeatherDisplay:10.37,2013-08-01 01:59:00,
2013-07-31 22:04:00,61.9,59.5,29.97,NNW,330,0.0,0.0,92,0.00,SCT,OVC,0.00,WeatherDisplay:10.37,2013-08-01 02:04:00,
2013-07-31 22:09:00,61.6,59.2,29.97,NNW,330,0.0,0.0,92,0.00,SCT,OVC,0.00,WeatherDisplay:10.37,2013-08-01 02:09:00,
2013-07-31 22:14:00,61.5,59.5,29.97,NNW,330,0.0,0.0,93,0.00,SCT,OVC,0.00,WeatherDisplay:10.37,2013-08-01 02:14:00,
2013-07-31 22:19:00,61.4,59.4,29.97,NNW,333,0.0,0.0,93,0.00,SCT,OVC,0.00,WeatherDisplay:10.37,2013-08-01 02:19:00,
2013-07-31 22:24:00,61.4,59.3,29.97,NNW,340,0.0,0.0,93,0.00,SCT,OVC,0.00,WeatherDisplay:10.37,2013-08-01 02:24:00,
2013-07-31 22:29:00,61.3,59.3,29.97,NNW,344,0.0,0.0,93,0.00,SCT,OVC,0.00,WeatherDisplay:10.37,2013-08-01 02:29:00,
2013-07-31 22:34:00,61.2,59.2,29.97,NNW,344,0.0,0.0,93,0.00,SCT,OVC,0.00,WeatherDisplay:10.37,2013-08-01 02:34:00,
2013-07-31 22:39:00,61.1,59.1,29.97,NNW,344,0.0,1.0,93,0.00,SCT,OVC,0.00,WeatherDisplay:10.37,2013-08-01 02:39:00,
2013-07-31 22:44:00,61.0,59.0,29.97,NNW,331,0.0,1.0,93,0.00,SCT,OVC,0.00,WeatherDisplay:10.37,2013-08-01 02:44:00,
2013-07-31 22:49:00,61.0,59.0,29.97,NNW,337,0.0,0.0,93,0.00,SCT,OVC,0.00,WeatherDisplay:10.37,2013-08-01 02:49:00,
2013-07-31 22:54:00,60.9,58.9,29.97,NNW,345,0.0,0.0,93,0.00,SCT,OVC,0.00,WeatherDisplay:10.37,2013-08-01 02:54:00,
2013-07-31 22:59:00,60.8,58.7,29.97,NNW,345,0.0,0.0,93,0.00,SCT,OVC,0.00,WeatherDisplay:10.37,2013-08-01 02:59:00,
2013-07-31 23:04:00,60.8,59.0,29.97,NNW,345,0.0,0.0,94,0.00,SCT,OVC,0.00,WeatherDisplay:10.37,2013-08-01 03:04:00,
2013-07-31 23:09:00,60.7,59.0,29.97,NNW,345,0.0,0.0,94,0.00,SCT,OVC,0.00,WeatherDisplay:10.37,2013-08-01 03:09:00,
2013-07-31 23:14:00,60.7,59.0,29.97,NNW,345,0.0,0.0,94,0.00,BKN,OVC,0.00,WeatherDisplay:10.37,2013-08-01 03:14:00,
2013-07-31 23:19:00,60.7,59.0,29.97,NNW,345,0.0,0.0,94,0.00,BKN,OVC,0.00,WeatherDisplay:10.37,2013-08-01 03:19:00,
2013-07-31 23:24:00,60.6,58.9,29.97,NNW,345,0.0,0.0,94,0.00,BKN,OVC,0.00,WeatherDisplay:10.37,2013-08-01 03:24:00,
2013-07-31 23:29:00,60.6,58.8,29.96,NNW,345,0.0,0.0,94,0.00,BKN,OVC,0.00,WeatherDisplay:10.37,2013-08-01 03:29:00,
2013-07-31 23:39:00,60.4,58.7,29.96,NNW,345,0.0,0.0,94,0.00,BKN,OVC,0.00,WeatherDisplay:10.37,2013-08-01 03:39:00,
2013-07-31 23:44:00,60.4,58.7,29.96,NNW,345,0.0,0.0,94,0.00,BKN,OVC,0.00,WeatherDisplay:10.37,2013-08-01 03:44:00,
2013-07-31 23:49:00,60.4,58.7,29.96,NNW,345,0.0,0.0,94,0.00,BKN,OVC,0.00,WeatherDisplay:10.37,2013-08-01 03:49:00,
2013-07-31 23:54:00,60.4,58.7,29.96,NNW,345,0.0,0.0,94,0.00,BKN,OVC,0.00,WeatherDisplay:10.37,2013-08-01 03:54:00,